Regional Weather Roundup
Issued by NWS

Home | Current Version | Previous Version | Graphics & Text | Print | Product List | Glossary On
Versions: 1 2 3 4 5 6 7 8 9 10 11 12 13 14 15 16 17 18 19 20 21 22 23 24 25 26 27 28 29 30 31 32 33 34 35 36 37 38 39 40 41 42 43 44 45 46 47 48 49 50
000
ASUS43 KMKX 281500
RWRWI

WISCONSIN REGIONAL WEATHER ROUNDUP
NATIONAL WEATHER SERVICE MILWAUKEE/SULLIVAN WI
1000 AM CDT MON JUL 28 2014

NOTE: "FAIR" INDICATES FEW OR NO CLOUDS BELOW 12,000 FEET WITH NO
SIGNIFICANT WEATHER AND/OR OBSTRUCTIONS TO VISIBILITY.

WIZ001-002-006>008-014>016-023>028-281600-
NORTHWEST WISCONSIN

CITY           SKY/WX    TMP DP  RH WIND       PRES   REMARKS
SUPERIOR ARPT  SUNNY     68  56  64 NW9       30.17S
ASHLAND        MOSUNNY   68  56  65 NW8       30.16S
HAYWARD        SUNNY     66  55  67 CALM      30.18S
SIREN          CLOUDY    62  57  82 W7        30.20S
RICE LAKE      CLOUDY    63  56  78 W5        30.20S
LADYSMITH      MOSUNNY   64  55  73 NW8       30.19S
EAU CLAIRE     CLOUDY    69  51  52 VRB6      30.17S
MENOMONIE      CLOUDY    65  56  71 CALM      30.19S
NEW RICHMOND   CLOUDY    64  58  83 NW3       30.20S
OSCEOLA        CLOUDY    64  60  88 NW5       30.23R
$$

WIZ003>005-009-010-017-018-281600-
NORTH CENTRAL WISCONSIN

CITY           SKY/WX    TMP DP  RH WIND       PRES   REMARKS
WOODRUFF       SUNNY     64  55  75 NW12      30.13F
RHINELANDER    SUNNY     62  52  69 NW9       30.14S
EAGLE RIVER    SUNNY     62  51  67 NW10      30.13R
LAND O LAKES   SUNNY     63  52  67 N8        30.13S
PHILLIPS       SUNNY     61  52  72 NW6       30.15F
TOMAHAWK       SUNNY     61  52  73 NW7       30.15F
MEDFORD        MOSUNNY   61  52  71 NW12      30.16S
MERRILL        SUNNY     61  53  74 NW9       30.14S
$$

WIZ029-030-035-036-043>047-281600-
CENTRAL WISCONSIN

CITY           SKY/WX    TMP DP  RH WIND       PRES   REMARKS
WAUSAU         PTSUNNY   64  50  60 NW10      30.12F
MOSINEE        PTSUNNY   63  54  72 NW10      30.15S
MARSHFIELD     PTSUNNY   64  52  64 NW9       30.16R
STEVENS POINT  PTSUNNY   60  50  69 NW7       30.15R
WAUPACA        SUNNY     64  50  60 N6        30.13S
WAUTOMA        NOT AVBL
WISC RAPIDS    CLOUDY    64  52  64 MISG      30.16S
CAMP DOUGLAS   NOT AVBL
$$

WIZ011>013-019>022-031-037>040-048>050-281600-
NORTHEAST WISCONSIN

CITY           SKY/WX    TMP DP  RH WIND       PRES   REMARKS
ANTIGO         CLOUDY    60  53  75 NW8       30.13S
STURGEON BAY   PTSUNNY   57  45  62 N15       30.10S
GREEN BAY      CLOUDY    62  47  57 N8        30.11S
MANITOWOC      NOT AVBL
APPLETON       PTSUNNY   61  46  59 N13       30.12S
CLINTONVILLE   PTSUNNY   61  50  67 N5        30.12S
OSHKOSH        SUNNY     62  49  62 N13       30.12S
$$

WIZ032>034-041-042-053>061-281600-
SOUTHWEST WISCONSIN

CITY           SKY/WX    TMP DP  RH WIND       PRES   REMARKS
LA CROSSE      SUNNY     68  54  60 VRB5      30.17
SPARTA         SUNNY     64  52  66 CALM      30.18S
VIROQUA        FAIR      64  51  64 N8        30.18S
BOSCOBEL       SUNNY     69  50  50 N8        30.17S
PRAIRIE DU CHI SUNNY     66  50  56 NW8       30.17S
PLATTEVILLE    FAIR      64  49  58 N14G20    30.17R
$$

WIZ056-057-062-063-064-067-068-281600-
SOUTH CENTRAL WISCONSIN

CITY           SKY/WX    TMP DP  RH WIND       PRES   REMARKS
BARABOO/DELLS  SUNNY     64  47  55 N8        30.14S
LONE ROCK      NOT AVBL
WATERTOWN      SUNNY     60  49  68 N13       30.11S
MADISON        MOSUNNY   65  50  58 N14       30.14R
MIDDLETON      FAIR      64  49  56 N10G16    30.14S
MONROE         SUNNY     63  50  63 N14G20    30.13S
JANESVILLE     SUNNY     64  46  52 N9        30.11R
$$

WIZ051-052-058>065-066-070>072-281600-
SOUTHEAST WISCONSIN

CITY           SKY/WX    TMP DP  RH WIND       PRES   REMARKS
MILWAUKEE      MOSUNNY   61  46  57 N14       30.09R
WAUKESHA       NOT AVBL
MILWAUKEE/TIMM SUNNY    N/A N/A N/A N13G22    30.09S
RACINE         SUNNY     61  46  57 N21G28    30.10R
BURLINGTON     MOSUNNY   59  47  64 N13G18    30.09S
KENOSHA        SUNNY     62  47  57 N14G21    30.08S
FOND DU LAC    SUNNY     62  48  60 N10G20    30.12S
SHEBOYGAN      SUNNY     62  48  60 N10G17    30.09R
WEST BEND      SUNNY     59  43  55 N15G21    30.09S
JUNEAU         SUNNY     60  47  62 N9G18     30.13R
$$

LSZ147-162-281600-
LAKE SUPERIOR

STATION/POSITION TIME  TEMP    WIND        PRES    WAVE
                       AIR SEA DIR/SP/G            HT/PER
                 (UTC) (F)     (DEG/KT/KT) (MB)    (FT/S)
W MID LAKE BUOY  1350   48 43  300/  8/  8 1019.8R   0
PORT WING        1400   62     240/  7/  8 1021.3S
SAXON HARBOR     1440          310/  2/  7 1021.0R
$$

LMZ867-665-643>646-281600-
LAKE MICHIGAN

STATION/POSITION TIME  TEMP    WIND        PRES    WAVE
                       AIR SEA DIR/SP/G            HT/PER
                 (UTC) (F)     (DEG/KT/KT) (MB)    (FT/S)
N MID LAKE BUOY  1350   53 53  350/ 16/ 19 1017.4R   4/ 5
NORTHPORT PIER   1400   55     350/ 13/ 16 1019.0R
SISTER BAY       1440   59     350/ 14/ 18   N/A
KEWAUNEE LAKESHO 1406   58     340/ 11/ 14 1019.3R
SHEBOYGAN LAKESH 1400   54     350/ 11/ 12 1019.0R
PORT WASHINGTON  1400   61     360/  7/ 16 1019.0R
ATWATER BUOY     1400   58     360/ 19     1019.3R
MILWAUKEE LAKESH 1400   58     350/ 17/ 25   N/A
S MID LAKE BUOY  1350   56 59  340/ 21/ 27 1016.4R   8/ 7
KENOSHA   LAKESH 1400   58     360/ 20/ 22 1017.9R
$$

TC  - TEMPERATURE IN CELSIUS
VSB - VISIBILITY IN STATUTE MILES
WCI - WIND CHILL INDEX
HX  - HEAT INDEX




USA.gov is the U.S. government's official web portal to all federal, state and local government web resources and services.